Flag for Germany Weather past 2 weeks in Güstrow, Mecklenburg-Western Pomerania, Germany

Now
70 °F

Scattered clouds.


Feels Like: 70 °F
Forecast: 64 / 81 °F
Wind: 10 mph from East

Location: Laage

Current Time: Jul 25, 2014 at 10:51:57 PM

Latest Report: Jul 25, 2014 at 10:20 PM


Visibility: N/A

Pressure: 29.98 "Hg

Humidity: 69%

Dew point: 59 °F

Location of GüstrowLocation

Historic Weather in Güstrow — Graph

°F

Güstrow temperature yesterday

Maximum temperature yesterday: 81 °F (at 1:20 PM)
Minimum temperature yesterday: 61 °F (at 5:20 AM)
Average temperature yesterday: 71 °F

Past Weeks' High & Low Weather Summary

 TemperatureHumidityPressure
High84 °F (Jul 19, 2:20 PM)100% (Jul 12, 10:20 PM)30.18 "Hg (Jul 12, 10:20 PM)
Low55 °F (Jul 12, 10:20 PM)35% (Jul 19, 3:20 PM)29.68 "Hg (Jul 13, 5:20 PM)
Average68 °F72%30.00 "Hg
* Reported Jul 10 9:20 PM — Jul 25 9:20 PM, Güstrow, Weather by CustomWeather, © 2014

Note: Actual official high and low records may vary slightly from our data, if they occured in-between our weather recording intervals... More about our weather records

Advertising

Güstrow weather history for previous 24 hours

 ConditionsComfort  
Time TempWeatherWind HumidityBarometerVisibility
9:20 PM
Jul 25
72 °FPartly sunny.13 mph65%29.98 "HgN/A
8:20 PM73 °FPartly sunny.13 mph65%29.95 "HgN/A
7:20 PM75 °FPartly sunny.10 mph61%29.95 "HgN/A
6:20 PM77 °FBroken clouds.9 mph51%29.95 "HgN/A
5:20 PM77 °FPartly sunny.12 mph54%29.98 "HgN/A
4:20 PM75 °FScattered showers. Partly sunny.9 mph57%29.98 "HgN/A
3:20 PM81 °FBroken clouds.9 mph42%29.98 "HgN/A
2:20 PM82 °FBroken clouds.17 mph40%30.01 "HgN/A
1:20 PM84 °FPartly sunny.21 mph35%29.98 "HgN/A
12:20 PM81 °FPartly sunny.16 mph42%30.01 "HgN/A
11:20 AM79 °FBroken clouds.13 mph48%30.01 "HgN/A
10:20 AM77 °FPartly sunny.10 mph57%30.01 "HgN/A
9:20 AM73 °FPartly sunny.10 mph65%30.01 "HgN/A
8:20 AM70 °FPartly sunny.10 mph78%30.01 "HgN/A
7:20 AM68 °FPartly sunny.10 mph83%30.01 "HgN/A
6:20 AM64 °FPartly sunny.8 mph88%30.01 "HgN/A
5:20 AM64 °FPassing clouds.7 mph88%30.01 "HgN/A
4:20 AM64 °FPassing clouds.6 mph88%30.01 "HgN/A
3:20 AM64 °FPassing clouds.9 mph88%30.01 "HgN/A
2:20 AM64 °FLight rain. Passing clouds.6 mph83%30.04 "HgN/A
1:20 AM66 °FLight rain. Partly cloudy.6 mph73%30.07 "HgN/A
12:20 AM66 °FLight rain. Partly cloudy.6 mph68%30.07 "HgN/A
11:20 PM
Jul 24
68 °FPassing clouds.6 mph69%30.07 "HgN/A
10:20 PM68 °FPartly sunny.6 mph69%30.07 "HgN/A
Weather by CustomWeather, © 2014

See weather overviewHow to use our weather pages